Flag for U.S.A. Weather past 2 weeks in Virginia Beach, Virginia, U.S.A.

Now
72 °F

Passing clouds.


Feels Like: 67 °F
Forecast: 70 / 79 °F
Wind: 8 mph from North

Location: Virginia Beach - Oceana

Current Time: Sep 21, 2014 at 4:13:11 AM

Latest Report: Sep 21, 2014 at 3:56 AM


Visibility: 10 mi

Pressure: 29.85 "Hg

Humidity: 97%

Dew point: 71 °F

Location of Virginia BeachLocation

Historic Weather in Virginia Beach — Graph

°F

Virginia Beach temperature yesterday

Maximum temperature yesterday: 75 °F (at 2:56 PM)
Minimum temperature yesterday: 68 °F (at 12:56 AM)
Average temperature yesterday: 71 °F

Past Weeks' High & Low Weather Summary

 TemperatureHumidityPressure
High90 °F (Sep 6, 2:56 PM)100% (Sep 8, 3:58 PM)30.27 "Hg (Sep 8, 3:58 PM)
Low59 °F (Sep 18, 3:56 AM)47% (Sep 16, 1:56 PM)29.90 "Hg (Sep 21, 2:56 AM)
Average73 °F77%30.07 "Hg
* Reported Sep 6 2:56 AM — Sep 21 2:56 AM, Virginia Beach, Weather by CustomWeather, © 2014

Note: Actual official high and low records may vary slightly from our data, if they occured in-between our weather recording intervals... More about our weather records

Advertising

Virginia Beach weather history for previous 24 hours

 ConditionsComfort  
Time TempWeatherWind HumidityBarometerVisibility
2:56 AM
Sep 21
73 °FMostly cloudy.8 mph94%29.90 "Hg10 mi
1:56 AM71 °FPassing clouds.6 mph93%29.94 "Hg10 mi
12:56 AM71 °FPartly cloudy.5 mph93%29.95 "Hg10 mi
11:56 PM
Sep 20
72 °FPassing clouds.3 mph93%29.97 "Hg10 mi
10:56 PM73 °FPartly cloudy.5 mph90%29.98 "Hg10 mi
9:56 PM72 °FPartly cloudy.5 mph91%30.02 "Hg10 mi
8:56 PM72 °FPartly cloudy.9 mph87%30.04 "Hg10 mi
7:56 PM72 °FBroken clouds.9 mph84%30.03 "Hg10 mi
6:56 PM72 °FPartly sunny.6 mph84%30.04 "Hg10 mi
5:56 PM72 °FMostly cloudy.10 mph84%30.06 "Hg10 mi
5:03 PM73 °FMore clouds than sun.12 mph84%30.06 "Hg10 mi
3:56 PM72 °FBroken clouds.12 mph87%30.09 "Hg10 mi
2:56 PM75 °FOvercast.13 mph76%30.11 "Hg10 mi
1:56 PM74 °FPartly sunny.14 mph79%30.13 "Hg10 mi
8:56 AM73 °FPartly sunny.14 mph81%30.20 "Hg10 mi
7:56 AM71 °FPartly sunny.10 mph81%30.19 "Hg10 mi
6:56 AM71 °FPassing clouds.13 mph78%30.20 "Hg10 mi
5:56 AM70 °FPassing clouds.10 mph81%30.19 "Hg10 mi
4:56 AM70 °FPassing clouds.12 mph76%30.19 "Hg10 mi
Weather by CustomWeather, © 2014

See weather overviewHow to use our weather pages